Tracking 19717 objects as of 25-Jun-2019
HD Live streaming from Space Station
objects crossing your sky now

SL-8 DEB

Track SL-8 DEB now!
10-day predictions


NORAD ID: 21955
Int'l Code: 1991-009CF
Perigee: 1,518.9 km
Apogee: 1,785.3 km
Inclination: 74.3 °
Period: 119.2 minutes
Semi major axis: 8023 km
RCS: 0.0532 m2 (small)
Launch date: February 12, 1991
Source: Commonwealth of Independent States (former USSR) (CIS)
Launch site: PLESETSK MISSILE AND SPACE COMPLEX (PKMTR)

Note: This is SATELLITE DEBRIS
aabbcc
Your satellite tracking list
Your tracking list is empty




NASA's NSSDC Master Catalog

Two Line Element Set (TLE):
1 21955U 91009CF  19175.78993623  .00000181  00000-0  20783-2 0  9993
2 21955  74.3106 288.8166 0166057  57.5523  95.3590 12.08060336247638
Source of the keplerian elements: AFSPC